Starlink 6160

operational
NORAD ID: 56382 Int'l Des: 2023-061 Owner: SPXS Country: US Constellation: starlink
LEOCIRCULAR

Starlink 6160について

説明を読み込み中...

リアルタイム位置

3D地球を読み込み中...

次回通過

高度履歴

Altitude vs Time

uPlot chart will show altitude changes over time

軌道要素

1 56382U 23061J 25354.16628084 -.00003790 00000-0 -26556-3 0 9998
2 56382 43.0022 269.4546 0001121 272.9542 87.1172 15.02545795144793
Epoch: Dec 20, 2025 • Age: 23 hours

現在のステータス

高度 559.2 km
速度 7.58 km/s
衛星直下点 -2.25°S, 50.42°W
打ち上げ日 May 4, 2023
運用期間 2.6 years
タイプ internet

技術仕様

分類 Payload
質量 305.00 kg
乾燥質量 290.00 kg
総質量 305.00 kg
長さ 0.20 m
直径 2.80 m
スパン 9.00 m
形状 Box + pan
製造者 SPXS
バスタイプ Starlink
フェーズステータス In Orbit
所有者/国 SPXS/US

大規模コンステレーション

Loading constellations...